{"data":{"norad_id":57349,"intl_designator":"2023-099X","name":"STARLINK-6376","alt_names":[],"object_type":"PAYLOAD","status":"ACTIVE","operator":null,"country":"US","launch_date":"2023-07-16","launch_site_code":"AFETR","launch_vehicle":null,"mission":null,"orbit_class":"UNKNOWN","rcs_meters":null,"size_class":null,"mass_kg":null,"dimensions":null,"purposes":["comms"],"wikipedia_slug":null,"has_3d_model":false,"image_url":null,"decayed_at":null,"tle_current":{"epoch":"2026-09-20T06:02:48.117984Z","epoch_age_seconds":145741,"freshness":"FRESH","line1":"1 57349U 23099X   26263.25194581  .00000486  00000+0  27190-4 0  9995","line2":"2 57349  43.0021 230.0825 0001479 263.3101  96.7583 15.27578834176593","mean_motion":15.27578834,"eccentricity":0.0001479,"inclination_deg":43.0021,"raan_deg":230.0825,"arg_perigee_deg":263.3101,"mean_anomaly_deg":96.7583,"bstar":2.719e-5,"rev_number":17659,"period_min":94.266820667404,"perigee_km":482.03781752535,"apogee_km":484.06735740533,"semimajor_km":6861.1895874653,"source":"CELESTRAK","updated_at":"2026-09-21T09:00:33.600176Z"}}}